This is the latest recevied weather packets stored in our database for station/object WD4IXD. If no packets are shown the sender has not sent any weather packets the latest 10 day(s).
| Time | Temp. | Humidity | Pressure | Rain* | Wind** | Luminosity | Snow |
|---|---|---|---|---|---|---|---|
| 1777752315 | 22.78° C | 12% | 1019.9 hPa | 0 mm | - | 933 W/m² | - |
| 1777752004 | 23.33° C | 12% | 1020 hPa | 0 mm | - | 942 W/m² | - |
| 1777751715 | 22.22° C | 13% | 1020 hPa | 0 mm | - | 946 W/m² | - |
| 1777751403 | 21.11° C | 13% | 1020 hPa | 0 mm | - | 949 W/m² | - |
| 1777751115 | 20.56° C | 13% | 1020.2 hPa | 0 mm | - | 951 W/m² | - |
| 1777750815 | 21.11° C | 13% | 1020.3 hPa | 0 mm | - | 953 W/m² | - |
| 1777750504 | 22.78° C | 12% | 1020.3 hPa | 0 mm | - | 962 W/m² | - |
| 1777750215 | 23.89° C | 11% | 1020.4 hPa | 0 mm | - | 962 W/m² | - |
| 1777749903 | 23.89° C | 12% | 1020.5 hPa | 0 mm | - | 958 W/m² | - |
| 1777749615 | 23.89° C | 12% | 1020.5 hPa | 0 mm | - | 962 W/m² | - |
| 1777749303 | 23.33° C | 12% | 1020.6 hPa | 0 mm | - | 962 W/m² | - |
| 1777749015 | 23.33° C | 13% | 1020.7 hPa | 0 mm | - | 965 W/m² | - |
| 1777748704 | 22.78° C | 13% | 1020.7 hPa | 0 mm | - | 949 W/m² | - |
| 1777748415 | 22.22° C | 13% | 1020.7 hPa | 0 mm | - | 925 W/m² | - |
| 1777748104 | 22.22° C | 14% | 1020.8 hPa | 0 mm | - | 900 W/m² | - |
| 1777747815 | 21.67° C | 14% | 1020.9 hPa | 0 mm | - | 898 W/m² | - |
| 1777747503 | 21.11° C | 14% | 1021 hPa | 0 mm | - | 921 W/m² | - |
| 1777747215 | 21.67° C | 13% | 1021 hPa | 0 mm | - | 940 W/m² | - |
| 1777746915 | 21.11° C | 14% | 1021.1 hPa | 0 mm | - | 958 W/m² | - |
| 1777746604 | 21.11° C | 14% | 1021.1 hPa | 0 mm | - | 954 W/m² | - |
| 1777746315 | 21.11° C | 14% | 1021.2 hPa | 0 mm | - | 953 W/m² | - |
| 1777746004 | 21.11° C | 15% | 1021.2 hPa | 0 mm | - | 949 W/m² | - |
| 1777745704 | 20.56° C | 16% | 1021.2 hPa | 0 mm | - | 946 W/m² | - |
| 1777745415 | 21.11° C | 16% | 1021.2 hPa | 0 mm | - | 942 W/m² | - |
| 1777745104 | 21.11° C | 16% | 1021.4 hPa | 0 mm | - | 937 W/m² | - |
* Rain latest hour (hover to see other rain measurements)
** Current wind speed in m/s (hover to see current wind gust speed)